Weather History for Brisbane Airport M. O, Queensland

Change the Weather History Date:

Tuesday, April 23, 2013

  Actual Average Record
Temperature  
Mean Temperature 70 °F -  
Max Temperature 80 °F 75 °F - ()
Min Temperature 60 °F 58 °F - ()
Cooling Degree Days 5    
Growing Degree Days 20 (Base 50)    
Moisture  
Dew Point 65 °F    
Average Humidity 84    
Maximum Humidity 100    
Minimum Humidity 55    
Precipitation  
Precipitation 0.00 in 0.13 in - ()
Sea Level Pressure  
Sea Level Pressure 29.89 in    
Wind  
Wind Speed 5 mph ()    
Max Wind Speed 10 mph    
Max Gust Speed -    
Visibility 8.3 miles    
Events Fog    
T = Trace of Precipitation, MM = Missing Value Source: Averaged Metar Reports

Daily Weather History Graph

Daily Weather History Graph

Search for Another Location

Airport:

Trip Planner

Search our weather history database for the weather conditions in past years. The results will help you decide how hot, cold, wet, or windy it might be!

Date:

Astronomy

Apr. 23, 2013 Rise Set
Actual Time 6:08 AM AEST 5:23 PM AEST
Civil Twilight 5:44 AM AEST 5:46 PM AEST
Nautical Twilight 5:17 AM AEST 6:14 PM AEST
Astronomical Twilight 4:49 AM AEST 6:41 PM AEST
Moon 3:25 PM AEST (4/23) 3:08 AM AEST (4/23)
Length of Visible Light 12h 02m
Length of Day
11h 14m
Waxing Gibbous, 90% of the Moon is Illuminated
Apr 23
Waxing Gibbous
Apr 26
Full
May 2
Last Quarter
May 10
New
May 18
First Quarter

Hourly Weather History & Observations

Time (AEST) Temp. Heat Index Dew Point Humidity Pressure Visibility Wind Dir Wind Speed Gust Speed Precip Events Conditions
12:00 AM 65 °F - 63 °F 92% 29.91 in 19 mi North 4.6 mph - -   Partly Cloudy
12:00 AM 64.4 °F - 62.6 °F 94% 29.89 in - North 4.6 mph - N/A   Clear
12:30 AM 62.6 °F - 62.6 °F 100% 29.89 in - NNW 3.5 mph - N/A   Clear
1:00 AM 63 °F - 62 °F 93% 29.91 in - WSW 4.6 mph - -  
1:00 AM 62.6 °F - 60.8 °F 94% 29.89 in - WSW 4.6 mph - N/A   Clear
1:30 AM 62.6 °F - 60.8 °F 94% 29.89 in - SSW 5.8 mph - N/A   Clear
2:00 AM 62.6 °F - 60.8 °F 94% 29.89 in - SSW 6.9 mph - N/A   Clear
2:30 AM 62.6 °F - 60.8 °F 94% 29.86 in - SSW 5.8 mph - N/A   Clear
3:00 AM 62 °F - 61 °F 94% 29.88 in 19 mi SW 4.6 mph - -   Partly Cloudy
3:00 AM 62.6 °F - 60.8 °F 94% 29.86 in - SW 4.6 mph - N/A   Clear
3:30 AM 60.8 °F - 60.8 °F 100% 29.86 in - SSW 5.8 mph - N/A   Clear
4:00 AM 62 °F - 61 °F 95% 29.88 in - SSW 5.8 mph - -  
4:00 AM 62.6 °F - 60.8 °F 94% 29.86 in - SSW 5.8 mph - N/A   Clear
4:30 AM 60.8 °F - 60.8 °F 100% 29.86 in - SSW 5.8 mph - N/A   Clear
5:00 AM 60.8 °F - 59.0 °F 94% 29.86 in - South 4.6 mph - N/A   Clear
5:30 AM 62.6 °F - 60.8 °F 94% 29.89 in - SSW 4.6 mph - N/A   Clear
6:00 AM 62 °F - 61 °F 94% 29.90 in 9 mi South 5.8 mph - -   Haze
6:00 AM 62.6 °F - 60.8 °F 94% 29.89 in - South 5.8 mph - N/A   Clear
6:30 AM 64.4 °F - 62.6 °F 94% 29.89 in - South 5.8 mph - N/A   Clear
7:00 AM 65 °F - 63 °F 89% 29.91 in - South 5.8 mph - -  
7:00 AM 64.4 °F - 62.6 °F 94% 29.89 in - South 5.8 mph - N/A   Clear
7:30 AM 66.2 °F - 62.6 °F 88% 29.89 in - SSW 3.5 mph - N/A   Clear
8:00 AM 68.0 °F - 62.6 °F 83% 29.92 in - SSW 8.1 mph - N/A   Clear
8:30 AM 69.8 °F - 62.6 °F 78% 29.92 in - SSW 6.9 mph - N/A   Clear
9:00 AM 72 °F - 63 °F 65% 29.93 in 12 mi SSW 4.6 mph - -   Partly Cloudy
9:00 AM 71.6 °F - 62.6 °F 73% 29.92 in - SSW 4.6 mph - N/A   Clear
9:30 AM 75.2 °F - 64.4 °F 69% 29.92 in - ENE 2.3 mph - N/A   Clear
10:00 AM 77 °F - 64 °F 55% 29.92 in - WNW 5.8 mph - -  
10:00 AM 77.0 °F - 64.4 °F 65% 29.92 in - WNW 5.8 mph - N/A   Clear
10:30 AM 78.8 °F - 64.4 °F 61% 29.89 in - North 5.8 mph - N/A   Clear
11:00 AM 78.8 °F - 64.4 °F 61% 29.89 in - North 5.8 mph - N/A   Clear
11:30 AM 78.8 °F - 64.4 °F 61% 29.89 in - ENE 8.1 mph - N/A   Clear
12:00 PM 78 °F - 66 °F 59% 29.88 in 16 mi NE 10.4 mph - -   Haze
12:00 PM 78.8 °F - 66.2 °F 65% 29.86 in 6.2 mi NE 10.4 mph - N/A   Partly Cloudy
12:30 PM 78.8 °F - 64.4 °F 61% 29.86 in 6.2 mi NNE 9.2 mph - N/A   Partly Cloudy
1:30 PM 80.6 °F 82.7 °F 66.2 °F 61% 29.83 in 6.2 mi NE 6.9 mph - N/A   Partly Cloudy
2:00 PM 80.6 °F 82.7 °F 66.2 °F 61% 29.83 in 6.2 mi NNE 8.1 mph - N/A   Partly Cloudy
2:30 PM 77.0 °F - 68.0 °F 74% 29.86 in 6.2 mi NNE 9.2 mph - N/A   Scattered Clouds
3:00 PM 76 °F - 66 °F 65% 29.86 in 16 mi NNE 8.1 mph - -   Haze
3:00 PM 77.0 °F - 66.2 °F 69% 29.83 in 6.2 mi NNE 8.1 mph - N/A   Scattered Clouds
3:30 PM 78.8 °F - 66.2 °F 65% 29.83 in 6.2 mi NNE 9.2 mph - N/A   Scattered Clouds
4:00 PM 77 °F - 67 °F 65% 29.86 in - North 10.4 mph - -  
4:00 PM 77.0 °F - 68.0 °F 74% 29.86 in 6.2 mi North 10.4 mph - N/A   Partly Cloudy
4:30 PM 75.2 °F - 68.0 °F 78% 29.86 in 6.2 mi NNE 5.8 mph - N/A   Partly Cloudy
5:00 PM 73.4 °F - 69.8 °F 88% 29.86 in 6.2 mi North 6.9 mph - N/A   Partly Cloudy
5:30 PM 73.4 °F - 71.6 °F 94% 29.86 in 6.2 mi NNE 5.8 mph - N/A   Partly Cloudy
6:00 PM 73 °F - 71 °F 91% 29.88 in 19 mi NNE 1.2 mph - -   Partly Cloudy
6:00 PM 73.4 °F - 71.6 °F 94% 29.86 in 6.2 mi NNE 1.2 mph - N/A   Partly Cloudy
6:30 PM 73.4 °F - 71.6 °F 94% 29.89 in 6.2 mi East 3.5 mph - N/A   Partly Cloudy
7:00 PM 73 °F - 71 °F 92% 29.90 in - East 3.5 mph - -  
7:00 PM 73.4 °F - 71.6 °F 94% 29.89 in 6.2 mi East 3.5 mph - N/A   Partly Cloudy
7:30 PM 71.6 °F - 69.8 °F 94% 29.92 in 6.2 mi NNE 4.6 mph - N/A   Scattered Clouds
7:50 PM 71.6 °F - 71.6 °F 100% 29.92 in 6.2 mi Calm Calm - N/A Fog Shallow Fog
8:00 PM 71.6 °F - 71.6 °F 100% 29.92 in 6.2 mi Calm Calm - N/A Fog Shallow Fog
8:21 PM 73.4 °F - 69.8 °F 88% 29.95 in 6.2 mi SSE 5.8 mph - N/A   Scattered Clouds
8:30 PM 71.6 °F - 69.8 °F 94% 29.95 in 6.2 mi SSE 5.8 mph - N/A   Scattered Clouds
8:40 PM 71.6 °F - 68.0 °F 88% 29.95 in 6.2 mi SE 5.8 mph - N/A   Mostly Cloudy
9:00 PM 71 °F - 67 °F 83% 29.96 in 12 mi SSE 5.8 mph - -   Haze
9:00 PM 71.6 °F - 66.2 °F 83% 29.95 in 6.2 mi SSE 5.8 mph - N/A   Scattered Clouds
9:30 PM 69.8 °F - 66.2 °F 88% 29.95 in 6.2 mi SSE 5.8 mph - N/A   Partly Cloudy
10:00 PM 71 °F - 66 °F 80% 29.97 in - SSE 4.6 mph - -  
10:00 PM 69.8 °F - 66.2 °F 88% 29.95 in 6.2 mi SSE 4.6 mph - N/A   Partly Cloudy
10:30 PM 68.0 °F - 66.2 °F 94% 29.95 in 6.2 mi SSE 4.6 mph - N/A   Partly Cloudy
11:00 PM 69.8 °F - 64.4 °F 83% 29.95 in 6.2 mi South 4.6 mph - N/A   Partly Cloudy
11:30 PM 68.0 °F - 64.4 °F 88% 29.95 in 6.2 mi SSW 6.9 mph - N/A   Partly Cloudy